Temp
-21 -20 -21 -21 -22 -21 -21 -22 -23 -22 -22 -21 -21 -22 -22 -22 -22 -21 -21 -21 -21 -21 -22 -22 -22 -23 -23 -22 -22 -22 -22 -22 -22 -22 -22 -22 -22 -23 -23 -23 -23 -23 -22 -22
-22 -22 -22 -23 -21 -22 -22 -23 -23 -23 -23 -23 -23 -23 -22 -22 -22 -22 -22 -21 -22 -22 -23 -23 -23 -23 -23 -23 -22 -22 -22 -22 -23 -23 -23 -24 -24 -24 -24 -24 -24 -24 -23 -24
-22 -23 -23 -23 -21 -23 -22 -23 -23 -24 -23 -23 -23 -23 -22 -22 -23 -22 -23 -23 -23 -23 -23 -23 -24 -23 -23 -23 -23 -23 -22 -23 -23 -24 -24 -24 -24 -24 -25 -25 -25 -25 -25 -25
-24 -24 -25 -23 -23 -23 -24 -23 -24 -24 -24 -24 -24 -23 -23 -23 -23 -23 -23 -24 -24 -23 -24 -24 -23 -23 -23 -23 -23 -23 -23 -24 -24 -24 -25 -25 -25 -25 -26 -26 -26 -26 -26 -26
-26 -25 -25 -22 -22 -24 -24 -24 -24 -24 -24 -24 -24 -24 -23 -24 -24 -24 -24 -24 -24 -24 -24 -24 -24 -24 -24 -24 -24 -24 -24 -24 -24 -25 -25 -25 -26 -26 -26 -27 -28 -27 -27 -27
-25 -25 -24 -22 -24 -24 -25 -24 -24 -24 -24 -24 -24 -24 -24 -24 -24 -24 -24 -24 -24 -24 -24 -24 -24 -24 -24 -24 -24 -24 -24 -25 -25 -25 -25 -26 -26 -26 -27 -27 -28 -28 -27 -27
-25 -25 -24 -23 -24 -25 -25 -24 -24 -24 -24 -24 -24 -25 -24 -25 -25 -25 -24 -24 -24 -24 -24 -24 -24 -24 -25 -25 -24 -24 -24 -24 -25 -25 -26 -26 -26 -27 -27 -27 -27 -28 -27 -27
-26 -26 -25 -24 -24 -25 -25 -24 -24 -24 -25 -25 -25 -25 -25 -25 -24 -24 -24 -24 -24 -24 -24 -24 -25 -25 -25 -24 -24 -24 -24 -25 -25 -26 -26 -26 -27 -27 -27 -28 -28 -28 -28 -28
-26 -25 -25 -25 -25 -25 -25 -25 -25 -25 -25 -25 -25 -25 -24 -25 -25 -25 -24 -25 -25 -24 -24 -25 -25 -25 -24 -24 -24 -24 -25 -25 -26 -26 -26 -26 -27 -27 -28 -27 -27 -27 -27 -27
-26 -26 -26 -25 -25 -25 -25 -25 -25 -25 -25 -25 -25 -25 -25 -25 -25 -24 -24 -24 -24 -24 -25 -25 -25 -25 -24 -24 -24 -25 -25 -26 -26 -26 -26 -26 -27 -27 -27 -27 -27 -27 -27 -27
-26 -26 -26 -25 -26 -25 -25 -25 -25 -25 -25 -25 -25 -25 -24 -24 -24 -24 -24 -24 -25 -25 -25 -25 -25 -25 -25 -25 -25 -25 -25 -26 -26 -26 -27 -27 -27 -27 -27 -27 -27 -27 -27 -26
-26 -25 -26 -26 -26 -26 -26 -26 -26 -25 -25 -25 -25 -25 -24 -24 -24 -24 -24 -25 -25 -25 -25 -25 -25 -25 -25 -25 -25 -25 -25 -26 -26 -26 -26 -27 -27 -26 -26 -27 -27 -27 -26 -26
-26 -26 -26 -26 -26 -26 -26 -26 -26 -25 -25 -25 -25 -25 -25 -25 -25 -25 -25 -25 -25 -25 -25 -25 -25 -25 -25 -25 -25 -25 -25 -26 -26 -26 -26 -26 -26 -26 -26 -26 -26 -26 -26 -26
-27 -27 -26 -26 -26 -26 -26 -26 -26 -25 -25 -25 -25 -25 -25 -25 -25 -26 -25 -25 -25 -25 -25 -25 -25 -25 -25 -25 -25 -26 -26 -26 -26 -26 -26 -27 -27 -26 -26 -26 -26 -26 -26 -26
-27 -27 -26 -26 -26 -26 -26 -26 -26 -25 -25 -25 -25 -25 -25 -26 -26 -26 -26 -25 -25 -25 -25 -25 -25 -25 -26 -26 -26 -26 -26 -26 -26 -26 -26 -26 -26 -26 -27 -27 -26 -27 -27 -26
-27 -27 -27 -26 -26 -26 -26 -26 -26 -26 -26 -26 -26 -26 -26 -26 -26 -26 -26 -26 -26 -26 -26 -25 -26 -26 -26 -26 -26 -26 -26 -26 -26 -26 -26 -27 -27 -27 -27 -27 -26 -26 -26 -26
-27 -27 -27 -26 -26 -26 -26 -26 -26 -27 -27 -27 -27 -27 -26 -26 -26 -26 -26 -26 -26 -26 -26 -26 -26 -26 -26 -26 -26 -26 -27 -27 -27 -27 -27 -27 -27 -27 -27 -27 -27 -27 -27 -27
-27 -26 -26 -26 -26 -26 -26 -27 -27 -27 -27 -27 -27 -27 -27 -27 -27 -27 -27 -27 -27 -27 -27 -27 -27 -27 -27 -27 -27 -27 -27 -27 -27 -27 -27 -27 -27 -27 -27 -27 -28 -27 -27 -27
-26 -26 -26 -26 -26 -26 -27 -27 -27 -27 -27 -27 -27 -27 -27 -27 -27 -27 -27 -27 -27 -27 -27 -27 -27 -27 -27 -27 -27 -27 -27 -27 -27 -27 -28 -28 -28 -28 -28 -28 -28 -28 -28 -28
-26 -26 -26 -27 -27 -27 -27 -27 -28 -28 -28 -28 -28 -28 -28 -28 -27 -27 -28 -28 -28 -28 -27 -27 -28 -28 -28 -28 -28 -28 -28 -28 -28 -28 -28 -28 -28 -28 -28 -28 -28 -28 -28 -28
-26 -26 -26 -26 -27 -27 -27 -27 -28 -28 -28 -29 -29 -29 -28 -28 -28 -28 -28 -28 -28 -28 -28 -28 -28 -28 -28 -28 -28 -28 -28 -28 -28 -28 -29 -29 -29 -29 -29 -29 -29 -29 -29 -29
-25 -26 -26 -26 -26 -27 -27 -28 -28 -29 -29 -29 -29 -29 -29 -29 -29 -29 -29 -29 -28 -28 -29 -29 -29 -29 -29 -29 -29 -29 -29 -29 -29 -29 -29 -29 -29 -29 -29 -29 -29 -29 -29 -29
-25 -25 -25 -26 -26 -27 -28 -28 -28 -29 -29 -29 -29 -29 -29 -29 -29 -29 -29 -29 -29 -29 -29 -29 -29 -29 -29 -29 -29 -29 -29 -29 -29 -29 -30 -30 -30 -30 -30 -30 -30 -30 -30 -30
-25 -25 -26 -26 -27 -28 -28 -28 -28 -28 -29 -29 -29 -29 -29 -29 -29 -29 -29 -29 -29 -29 -29 -29 -29 -29 -30 -30 -30 -30 -30 -30 -30 -30 -30 -30 -30 -30 -30 -30 -30 -31 -31 -31
-26 -26 -26 -27 -27 -28 -28 -28 -28 -28 -28 -29 -29 -29 -29 -29 -29 -29 -29 -29 -29 -29 -29 -29 -29 -29 -30 -30 -30 -30 -30 -30 -30 -30 -30 -31 -31 -31 -31 -31 -31 -31 -31 -32
-26 -26 -27 -27 -27 -28 -28 -28 -28 -29 -29 -29 -29 -29 -29 -29 -29 -29 -29 -29 -29 -29 -29 -29 -30 -30 -30 -30 -30 -30 -30 -31 -31 -31 -31 -31 -31 -31 -32 -32 -32 -32 -32 -32
-26 -27 -27 -27 -28 -28 -28 -28 -28 -29 -29 -29 -29 -29 -29 -29 -29 -29 -29 -29 -29 -30 -30 -30 -30 -30 -30 -31 -31 -31 -31 -31 -31 -32 -32 -32 -32 -32 -32 -32 -32 -32 -32 -32
Height
5620 5629 5627 5623 5625 5628 5628 5627 5625 5624 5626 5631 5631 5622 5618 5618 5615 5617 5617 5614 5614 5611 5608 5605 5602 5596 5594 5593 5591 5587 5585 5582 5577 5575 5572 5568 5563 5560 5556 5554 5552 5550 5549 5547
5610 5615 5613 5608 5617 5621 5617 5616 5615 5615 5615 5621 5614 5608 5609 5608 5608 5607 5607 5604 5601 5598 5597 5596 5591 5588 5586 5584 5579 5576 5573 5568 5566 5564 5561 5557 5553 5551 5547 5546 5544 5542 5540 5539
5601 5599 5598 5599 5614 5607 5605 5600 5602 5602 5606 5604 5603 5599 5600 5601 5598 5597 5596 5592 5589 5587 5585 5585 5581 5578 5575 5572 5570 5565 5563 5558 5557 5554 5551 5547 5544 5541 5538 5535 5534 5532 5531 5531
5588 5586 5585 5599 5599 5594 5588 5590 5594 5595 5593 5593 5591 5591 5591 5589 5587 5586 5584 5581 5579 5576 5574 5572 5570 5567 5565 5562 5558 5555 5552 5549 5547 5543 5541 5538 5535 5532 5529 5525 5523 5522 5522 5523
5574 5576 5576 5586 5589 5583 5579 5579 5585 5582 5583 5584 5582 5580 5580 5577 5576 5573 5571 5569 5568 5566 5563 5561 5559 5557 5553 5550 5548 5545 5543 5540 5537 5534 5531 5529 5526 5524 5521 5518 5515 5514 5515 5516
5566 5564 5564 5579 5574 5572 5568 5570 5575 5573 5573 5573 5570 5568 5568 5564 5563 5563 5562 5560 5558 5554 5552 5550 5547 5545 5543 5541 5539 5537 5534 5530 5527 5525 5523 5521 5518 5516 5514 5511 5509 5509 5509 5510
5556 5553 5556 5567 5564 5561 5559 5567 5563 5564 5562 5562 5561 5559 5558 5556 5553 5552 5551 5548 5547 5545 5543 5541 5538 5536 5534 5533 5530 5528 5525 5522 5520 5518 5515 5512 5510 5508 5506 5505 5504 5505 5505 5505
5546 5546 5548 5554 5553 5553 5553 5551 5552 5553 5553 5552 5551 5550 5549 5548 5546 5544 5542 5540 5539 5536 5533 5531 5528 5527 5525 5524 5521 5519 5518 5516 5513 5510 5508 5505 5503 5502 5501 5501 5502 5501 5501 5501
5538 5539 5541 5541 5542 5542 5541 5541 5541 5543 5544 5542 5541 5541 5541 5539 5538 5536 5533 5531 5529 5526 5524 5522 5521 5519 5518 5516 5514 5513 5511 5509 5506 5504 5501 5500 5499 5498 5499 5499 5499 5498 5498 5497
5527 5531 5530 5530 5531 5532 5532 5532 5532 5533 5532 5531 5531 5532 5531 5530 5529 5527 5525 5523 5520 5518 5516 5515 5514 5512 5510 5509 5508 5506 5504 5502 5500 5498 5496 5496 5497 5497 5497 5497 5496 5495 5494 5493
5521 5523 5523 5523 5524 5523 5524 5524 5524 5524 5523 5522 5521 5521 5521 5520 5520 5518 5516 5514 5511 5510 5509 5508 5506 5505 5504 5503 5501 5500 5498 5497 5495 5495 5494 5494 5495 5495 5495 5494 5493 5491 5490 5489
5514 5516 5515 5516 5516 5516 5518 5516 5516 5515 5513 5511 5511 5511 5511 5510 5510 5508 5507 5505 5504 5504 5502 5501 5500 5499 5498 5497 5496 5495 5494 5492 5492 5492 5492 5491 5491 5492 5492 5491 5489 5488 5486 5484
5505 5505 5506 5507 5508 5509 5508 5506 5505 5503 5503 5503 5503 5502 5502 5501 5501 5499 5499 5497 5496 5497 5496 5494 5494 5493 5492 5491 5490 5490 5490 5489 5489 5488 5489 5489 5490 5490 5489 5487 5486 5484 5483 5481
5495 5497 5500 5501 5502 5501 5500 5497 5496 5495 5494 5494 5494 5493 5493 5493 5492 5492 5492 5491 5490 5490 5489 5487 5487 5486 5485 5485 5485 5485 5485 5485 5486 5485 5486 5486 5485 5485 5484 5482 5480 5478 5477 5475
5488 5490 5492 5494 5493 5493 5491 5490 5488 5487 5486 5485 5486 5485 5484 5485 5485 5485 5485 5485 5484 5483 5481 5480 5480 5479 5479 5479 5479 5479 5480 5480 5480 5481 5481 5482 5481 5480 5479 5477 5475 5473 5471 5468
5480 5483 5485 5486 5486 5484 5483 5482 5479 5478 5477 5476 5476 5477 5478 5478 5478 5479 5478 5478 5477 5476 5475 5474 5474 5474 5473 5474 5474 5474 5474 5474 5475 5475 5474 5474 5473 5473 5472 5469 5467 5465 5463 5461
5473 5476 5478 5478 5477 5475 5474 5474 5471 5471 5471 5471 5471 5471 5472 5472 5472 5471 5471 5471 5471 5469 5468 5468 5468 5468 5468 5468 5468 5468 5468 5468 5468 5467 5466 5466 5466 5465 5463 5461 5459 5457 5454 5451
5467 5470 5471 5470 5468 5468 5468 5467 5466 5465 5465 5465 5465 5465 5465 5465 5465 5465 5465 5465 5464 5463 5463 5462 5462 5462 5462 5461 5461 5461 5460 5460 5460 5459 5459 5458 5457 5456 5454 5452 5449 5447 5444 5441
5462 5462 5461 5461 5461 5461 5461 5461 5460 5460 5459 5459 5459 5458 5458 5458 5458 5458 5458 5458 5457 5457 5456 5456 5456 5455 5455 5455 5454 5454 5454 5453 5453 5452 5452 5450 5449 5447 5445 5443 5440 5437 5434 5431
5454 5454 5455 5455 5456 5455 5454 5454 5453 5452 5452 5451 5451 5451 5451 5451 5451 5450 5450 5449 5449 5449 5449 5449 5449 5449 5449 5448 5447 5447 5447 5446 5445 5445 5443 5442 5440 5439 5437 5434 5431 5428 5424 5420
5449 5450 5450 5450 5449 5448 5447 5446 5445 5444 5443 5442 5442 5442 5442 5442 5442 5442 5442 5442 5442 5442 5442 5441 5442 5442 5442 5441 5440 5440 5439 5438 5437 5436 5435 5433 5431 5430 5427 5424 5421 5417 5413 5409
5445 5445 5445 5444 5444 5443 5441 5440 5439 5438 5437 5436 5436 5435 5435 5435 5435 5435 5435 5435 5435 5435 5435 5434 5434 5435 5434 5434 5433 5432 5431 5430 5429 5428 5427 5425 5423 5420 5417 5414 5410 5407 5403 5398
5443 5442 5441 5441 5440 5439 5438 5437 5436 5435 5435 5434 5433 5432 5431 5431 5430 5430 5429 5429 5429 5429 5429 5428 5428 5428 5427 5426 5426 5425 5424 5423 5422 5420 5418 5416 5413 5410 5407 5404 5400 5396 5391 5386
5440 5440 5439 5438 5437 5436 5435 5435 5434 5433 5433 5432 5431 5430 5429 5427 5426 5425 5425 5424 5424 5423 5423 5422 5421 5421 5420 5419 5418 5417 5416 5415 5413 5411 5409 5406 5403 5400 5396 5392 5388 5383 5379 5374
5438 5437 5436 5435 5435 5434 5433 5433 5432 5431 5430 5429 5428 5427 5426 5425 5424 5423 5421 5420 5419 5418 5417 5416 5415 5414 5413 5412 5411 5409 5408 5406 5404 5401 5399 5396 5393 5389 5385 5381 5377 5372 5367 5362
5434 5434 5433 5432 5432 5431 5430 5429 5429 5428 5427 5426 5425 5423 5422 5420 5419 5418 5417 5415 5413 5412 5411 5409 5408 5407 5406 5404 5403 5401 5399 5397 5394 5392 5389 5386 5382 5378 5374 5370 5366 5361 5356 5351
5430 5430 5429 5428 5428 5427 5426 5425 5424 5424 5422 5421 5420 5418 5416 5415 5413 5411 5410 5408 5406 5405 5403 5402 5400 5399 5397 5396 5394 5392 5389 5387 5384 5381 5378 5375 5371 5367 5364 5359 5355 5350 5344 5339
Wind_Speed
62 59 58 55 50 52 46 43 47 44 44 40 38 47 49 48 50 53 50 45 41 41 47 51 46 50 43 36 39 42 44 46 47 51 50 47 43 37 34 33 31 30 30 29
55 47 49 48 44 40 37 40 49 50 49 45 50 51 49 49 42 39 39 43 46 46 47 39 48 50 38 40 41 47 48 49 48 46 43 38 38 37 36 36 35 32 30 26
38 36 38 41 35 31 37 42 40 43 42 42 43 44 40 37 41 43 43 46 45 49 55 43 36 38 41 45 46 47 49 42 40 38 37 38 36 36 36 37 38 33 29 26
38 40 40 31 26 29 37 35 29 30 35 35 38 39 40 44 48 49 50 51 50 51 44 37 37 40 42 44 46 44 40 38 39 37 36 33 32 33 35 37 34 31 27 25
40 41 42 36 30 33 37 39 36 39 40 41 43 44 44 45 43 44 45 44 42 43 41 39 39 41 42 43 42 37 37 38 37 35 31 31 32 31 31 32 25 23 25 21
41 44 42 30 26 30 34 38 34 36 37 36 35 37 35 37 38 37 36 39 39 41 41 41 41 42 43 38 34 36 36 35 33 30 31 33 30 29 30 27 27 21 19 14
34 36 35 23 25 27 32 31 34 34 36 36 35 37 36 34 37 36 36 36 35 39 40 41 41 41 33 33 34 34 32 31 28 29 31 28 28 28 24 22 18 14 11 11
32 34 33 28 31 34 34 34 34 34 33 35 36 34 35 36 33 36 33 31 31 35 37 38 34 29 32 32 32 30 29 28 27 25 24 27 25 20 15 14 15 11 10 15
30 33 35 36 38 37 38 39 37 37 39 39 32 35 35 37 35 32 34 34 34 35 35 29 29 29 28 28 26 26 26 24 22 22 24 21 16 12 13 14 12 10 13 17
30 27 27 25 26 28 30 31 31 32 32 34 39 35 30 33 31 33 34 33 34 33 27 26 26 25 24 22 22 22 21 20 19 18 19 15 10 9 12 12 11 12 14 13
30 24 29 28 29 28 32 31 25 26 29 30 29 29 30 33 34 34 34 34 30 25 24 23 22 21 21 20 20 18 17 16 13 14 15 10 10 13 13 13 14 14 12 10
28 20 21 27 29 29 32 32 31 34 31 31 29 28 31 35 34 33 31 25 24 23 22 22 21 20 20 19 17 15 15 12 12 11 11 11 13 15 16 16 16 15 13 11
33 25 24 28 28 31 33 36 32 34 36 32 34 33 31 32 30 27 23 24 23 21 20 20 19 19 19 18 16 14 14 13 15 13 15 14 14 16 16 18 17 16 17 18
40 33 29 27 28 32 36 34 32 34 34 31 29 28 28 26 23 19 18 19 21 19 18 20 20 19 19 17 16 15 15 15 17 17 16 17 18 19 20 20 21 20 21 21
36 35 34 32 33 38 37 32 32 30 31 33 32 31 26 22 21 19 19 20 19 18 17 19 19 19 18 17 17 16 18 18 21 22 18 19 21 22 23 24 25 25 26 27
37 35 34 37 40 37 33 32 30 29 27 25 24 23 22 21 21 21 22 22 20 18 19 19 19 18 16 16 17 18 20 21 22 23 21 22 25 26 26 26 28 29 29 30
33 35 36 38 37 34 31 25 23 21 18 19 19 20 20 22 21 22 24 21 19 18 18 18 19 18 18 19 20 21 21 20 21 20 23 26 27 27 28 29 30 30 32 33
28 30 31 30 29 27 22 20 18 18 19 21 21 20 21 22 23 22 20 19 18 18 19 20 20 20 20 21 22 22 24 25 26 26 26 26 27 28 29 31 31 32 33 35
22 24 23 21 21 20 19 20 20 21 21 21 21 21 21 21 21 22 23 24 23 22 21 21 21 20 20 21 21 22 23 25 26 26 27 28 29 30 31 31 32 33 36 38
16 16 16 18 19 21 22 23 25 26 26 26 26 27 27 27 27 27 25 24 24 24 24 23 22 21 21 21 20 20 22 24 25 27 28 28 28 29 29 31 34 37 38 39
12 14 17 18 20 21 22 23 23 23 23 23 23 23 23 23 23 22 22 23 23 23 24 23 22 22 23 23 23 23 23 24 25 26 26 27 28 31 33 35 36 37 38 39
8 9 10 11 12 11 10 9 9 10 12 14 17 18 19 19 20 20 21 22 22 22 22 22 23 21 20 21 22 22 23 23 23 25 26 29 32 33 33 34 35 36 37 38
4 5 5 4 4 5 6 6 7 8 9 10 11 11 12 13 14 15 17 17 17 18 18 19 20 21 22 21 21 22 22 23 26 28 30 31 31 31 32 33 35 37 39 41
4 5 5 4 4 5 6 6 7 7 8 9 9 10 10 11 11 13 14 14 15 16 17 17 18 18 19 21 22 22 24 25 27 29 29 29 30 32 34 36 38 40 42 44
7 7 6 6 6 7 8 8 9 9 10 10 11 12 12 13 14 14 14 14 16 17 17 18 20 21 22 22 23 25 26 28 28 28 29 31 33 35 37 38 39 40 40 40
10 10 10 9 10 10 12 12 13 14 15 15 15 16 17 18 19 19 19 19 21 21 21 22 22 23 25 26 26 27 26 27 29 31 32 35 36 36 36 36 36 38 41 42
14 14 13 14 14 15 15 16 17 17 19 20 20 20 20 20 21 21 22 22 23 23 23 24 25 26 26 26 27 28 31 31 32 33 35 35 33 33 34 37 39 41 42 43
Wind_Direction
246 249 254 255 259 264 265 262 263 269 267 271 266 268 268 273 277 274 281 288 287 284 280 279 276 295 301 305 302 302 300 296 298 298 296 293 292 292 293 297 298 296 288 282
254 257 258 259 261 264 267 270 267 266 269 269 270 270 272 275 281 283 283 284 282 287 282 286 280 289 297 297 299 303 304 302 299 295 292 288 292 296 296 296 295 292 290 280
260 259 259 257 274 266 261 256 257 258 263 259 260 263 269 275 278 279 278 278 275 279 287 285 295 297 296 295 296 298 300 298 294 292 290 292 293 295 297 297 293 289 281 273
254 263 262 277 267 255 258 258 263 268 271 272 273 275 277 278 280 281 279 280 280 283 287 291 287 289 291 293 296 298 297 294 293 293 291 290 293 297 300 301 288 276 269 267
261 270 277 276 276 266 268 263 265 265 267 271 275 279 278 279 280 277 278 280 281 281 282 284 285 288 292 294 295 294 293 293 292 290 287 292 291 292 296 300 283 271 260 244
258 264 273 283 266 261 265 268 273 273 273 271 272 272 275 278 281 282 280 277 278 284 287 289 289 290 291 291 290 291 292 292 292 286 287 291 289 288 293 292 280 268 232 233
261 263 270 270 256 259 262 274 270 268 272 275 277 276 278 275 279 283 284 282 281 281 282 284 286 286 288 286 289 291 292 291 289 288 292 292 288 291 291 289 286 235 230 253
254 259 265 260 257 261 266 271 273 274 276 282 277 276 272 272 279 279 282 286 281 284 290 288 284 285 284 288 290 290 289 290 291 292 292 286 290 288 284 245 234 236 263 273
254 259 262 263 262 264 269 272 275 270 281 274 265 278 269 275 278 282 282 284 289 291 288 285 283 284 287 288 288 288 288 291 292 290 285 290 281 281 245 237 243 280 289 288
248 253 261 256 263 266 268 270 273 275 277 279 270 277 272 273 284 288 290 290 290 286 283 279 282 286 287 285 286 288 289 291 289 282 284 277 275 258 246 256 271 285 287 286
243 259 261 270 270 275 273 284 272 279 282 278 272 272 271 276 280 290 290 290 283 280 278 281 281 284 282 282 284 287 288 285 279 276 267 265 261 251 254 266 278 281 286 299
233 254 253 253 264 275 279 288 287 281 286 282 274 269 271 276 282 288 288 280 277 277 278 279 278 277 283 280 283 279 276 275 266 256 242 237 246 249 259 274 286 284 288 293
226 247 254 257 264 276 291 291 285 279 286 282 277 275 274 276 281 282 279 278 273 276 279 274 274 275 280 280 274 270 267 271 251 234 241 245 249 262 270 276 273 277 290 288
236 245 249 256 269 282 290 287 283 280 278 273 274 272 272 276 269 269 281 280 276 277 278 275 269 272 276 274 266 262 254 254 254 245 244 258 271 271 277 280 280 285 287 290
237 245 252 260 272 287 287 284 286 277 273 271 270 272 273 262 257 266 278 282 280 277 275 274 271 272 275 270 267 263 257 260 259 255 257 271 271 274 280 284 286 285 290 293
234 245 256 265 277 283 280 284 281 277 275 273 265 263 258 258 262 268 277 276 274 278 278 279 274 272 271 267 265 262 260 264 268 266 263 272 273 277 285 292 293 292 291 291
235 247 260 272 276 279 281 278 269 263 262 264 265 262 260 264 266 269 275 274 276 275 275 274 269 269 272 271 268 266 266 269 273 272 270 269 272 280 288 292 291 293 295 295
240 251 261 267 270 273 267 262 266 267 265 267 268 268 267 266 266 268 272 274 277 278 277 274 271 271 272 272 271 268 265 264 266 266 267 271 277 283 288 290 291 293 295 297
250 264 272 262 261 264 268 270 272 272 271 272 269 268 266 265 267 271 276 279 276 277 276 274 273 274 276 275 274 275 276 274 272 271 273 277 282 286 288 290 292 295 297 298
251 248 256 263 267 269 273 274 275 275 275 274 272 271 271 271 271 273 272 271 270 272 271 270 269 272 276 277 278 280 280 279 278 280 280 283 284 286 289 292 295 297 298 300
268 269 271 272 276 281 283 284 283 283 282 280 277 273 271 270 270 271 271 270 271 271 271 270 268 271 275 277 277 278 278 279 280 282 283 284 287 290 294 296 297 298 299 301
277 280 283 287 290 293 302 314 320 316 308 298 290 287 284 282 280 278 276 275 276 276 275 273 271 274 279 280 280 278 279 279 281 283 286 289 292 294 296 297 298 298 300 301
283 290 295 307 327 350 356 356 349 337 328 321 315 306 299 295 291 285 282 282 283 281 280 283 286 284 281 279 279 278 281 283 285 288 290 292 295 296 297 297 299 299 301 302
309 313 318 326 341 346 343 337 332 329 327 326 325 326 324 316 304 293 292 291 289 285 285 287 287 287 285 281 280 283 286 285 287 289 291 293 295 295 297 299 300 302 304 305
290 295 300 304 307 308 305 306 308 311 314 314 315 314 311 308 304 304 301 295 290 287 285 285 285 285 283 283 283 283 284 286 288 289 291 293 296 298 300 301 303 305 307 308
280 285 285 288 291 294 294 296 295 295 297 300 301 303 302 301 298 297 296 294 291 288 286 283 282 282 283 284 284 284 285 288 291 293 295 298 300 300 300 303 306 308 308 308
273 278 280 282 285 287 289 290 290 292 293 294 297 298 299 298 297 295 295 293 293 293 291 289 286 284 282 281 282 283 286 290 292 294 297 299 301 302 304 307 308 309 308 308